| time (UTC) | temp F | wind direction | speed MPH | gust MPH | rain 1hr in | rain 24hr in | rain mn in | humidity % | barometer mb |
| 20260507033132 | 49 | 73 | 0.0 | 2.0 | 0.02 | 0.41 | 0.06 | 95 | 1011.6 |
| 20260507032630 | 49 | 9 | 0.0 | 2.0 | 0.02 | 0.42 | 0.06 | 95 | 1011.6 |
| 20260507032137 | 50 | 308 | 0.0 | 0.0 | 0.02 | 0.42 | 0.06 | 95 | 1011.5 |
| 20260507032051 | 50 | 308 | 0.0 | 0.0 | 0.02 | 0.42 | 0.06 | 95 | 1011.5 |
| 20260507031132 | 50 | 308 | 0.0 | 1.0 | 0.02 | 0.41 | 0.06 | 94 | 1011.5 |
| 20260507030630 | 50 | 310 | 0.0 | 4.0 | 0.02 | 0.41 | 0.06 | 94 | 1011.4 |
| 20260507030516 | 50 | 13 | 0.0 | 4.0 | 0.02 | 0.41 | 0.06 | 94 | 1011.4 |
| 20260507025636 | 50 | 25 | 0.0 | 4.0 | 0.02 | 0.41 | 0.05 | 93 | 1011.3 |
| 20260507025129 | 50 | 43 | 0.0 | 8.0 | 0.01 | 0.40 | 0.05 | 93 | 1011.2 |
| 20260507025016 | 50 | 292 | 0.0 | 8.0 | 0.01 | 0.40 | 0.05 | 93 | 1011.2 |
| 20260507024112 | 50 | 196 | 0.0 | 3.0 | 0.01 | 0.40 | 0.05 | 94 | 1011.1 |
| 20260507023911 | 50 | 165 | 0.0 | 2.0 | 0.01 | 0.40 | 0.05 | 94 | 1011.1 |
| 20260507023745 | 50 | 175 | 0.0 | 3.0 | 0.01 | 0.40 | 0.05 | 93 | 1011.1 |
| 20260507022619 | 50 | 229 | 0.0 | 2.0 | 0.01 | 0.40 | 0.05 | 94 | 1011.0 |
| 20260507022110 | 50 | 183 | 0.0 | 2.0 | 0.01 | 0.39 | 0.05 | 94 | 1011.0 |
| 20260507021609 | 50 | 218 | 0.0 | 1.0 | 0.01 | 0.39 | 0.05 | 95 | 1010.9 |
| 20260507021459 | 50 | 218 | 0.0 | 1.0 | 0.01 | 0.39 | 0.05 | 95 | 1011.0 |
| 20260507020606 | 50 | 286 | 0.0 | 0.0 | 0.01 | 0.39 | 0.05 | 95 | 1010.9 |
| 20260507020111 | 50 | 286 | 0.0 | 0.0 | 0.02 | 0.39 | 0.05 | 95 | 1010.9 |
| 20260507015604 | 50 | 286 | 0.0 | 0.0 | 0.02 | 0.39 | 0.03 | 95 | 1010.7 |
| 20260507015112 | 50 | 286 | 0.0 | 0.0 | 0.02 | 0.39 | 0.03 | 95 | 1010.7 |
| 20260507014614 | 50 | 286 | 0.0 | 0.0 | 0.02 | 0.39 | 0.03 | 95 | 1010.6 |
| 20260507014103 | 50 | 286 | 0.0 | 0.0 | 0.02 | 0.39 | 0.03 | 95 | 1010.6 |
| 20260507013602 | 50 | 286 | 0.0 | 0.0 | 0.02 | 0.39 | 0.03 | 95 | 1010.6 |
| 20260507013103 | 50 | 286 | 0.0 | 0.0 | 0.02 | 0.39 | 0.03 | 95 | 1010.6 |
| 20260507012600 | 50 | 286 | 0.0 | 0.0 | 0.02 | 0.39 | 0.03 | 95 | 1010.5 |
| 20260507012110 | 50 | 286 | 0.0 | 0.0 | 0.02 | 0.39 | 0.03 | 95 | 1010.5 |
| 20260507011547 | 50 | 286 | 0.0 | 0.0 | 0.02 | 0.39 | 0.03 | 95 | 1010.5 |
| 20260507011048 | 50 | 286 | 0.0 | 0.0 | 0.02 | 0.39 | 0.03 | 95 | 1010.5 |
| 20260507010544 | 50 | 286 | 0.0 | 0.0 | 0.02 | 0.39 | 0.03 | 95 | 1010.5 |
| 20260507010044 | 50 | 286 | 0.0 | 0.0 | 0.01 | 0.38 | 0.03 | 95 | 1010.5 |
| 20260507005941 | 50 | 286 | 0.0 | 0.0 | 0.01 | 0.38 | 0.02 | 95 | 1010.4 |
| 20260507005054 | 50 | 286 | 0.0 | 0.0 | 0.02 | 0.38 | 0.02 | 94 | 1010.4 |
| 20260507004543 | 50 | 286 | 0.0 | 0.0 | 0.02 | 0.38 | 0.02 | 94 | 1010.4 |
| 20260507004046 | 50 | 286 | 0.0 | 0.0 | 0.01 | 0.37 | 0.02 | 94 | 1010.4 |
| 20260507003541 | 50 | 286 | 0.0 | 0.0 | 0.02 | 0.37 | 0.02 | 94 | 1010.5 |
| 20260507003041 | 50 | 286 | 0.0 | 0.0 | 0.02 | 0.37 | 0.02 | 93 | 1010.4 |
| 20260507002932 | 50 | 286 | 0.0 | 0.0 | 0.02 | 0.37 | 0.02 | 93 | 1010.4 |
| 20260507002433 | 50 | 286 | 0.0 | 0.0 | 0.02 | 0.37 | 0.02 | 94 | 1010.4 |
| 20260507002040 | 50 | 286 | 0.0 | 0.0 | 0.02 | 0.37 | 0.02 | 93 | 1010.4 |
| 20260507001045 | 50 | 286 | 0.0 | 0.0 | 0.02 | 0.37 | 0.02 | 94 | 1010.3 |
| 20260507000537 | 50 | 286 | 0.0 | 0.0 | 0.02 | 0.37 | 0.02 | 93 | 1010.4 |
| 20260507000454 | 50 | 286 | 0.0 | 0.0 | 0.02 | 0.37 | 0.02 | 93 | 1010.4 |
| 20260506235531 | 50 | 286 | 0.0 | 1.0 | 0.02 | 0.37 | 0.01 | 93 | 1010.4 |
| 20260506235412 | 50 | 286 | 0.0 | 1.0 | 0.01 | 0.36 | 0.01 | 93 | 1010.4 |
| 20260506234532 | 50 | 292 | 0.0 | 0.0 | 0.01 | 0.36 | 0.01 | 92 | 1010.4 |
| 20260506234320 | 50 | 198 | 0.0 | 1.0 | 0.01 | 0.35 | 0.01 | 92 | 1010.4 |
| 20260506234211 | 50 | 292 | 0.0 | 0.0 | 0.02 | 0.36 | 0.01 | 92 | 1010.5 |
| 20260506233032 | 51 | 204 | 0.0 | 3.0 | 0.01 | 0.35 | 0.01 | 92 | 1010.5 |
| 20260506232532 | 51 | 187 | 0.0 | 3.0 | 0.01 | 0.35 | 0.01 | 91 | 1010.5 |
| 20260506232035 | 51 | 224 | 0.0 | 1.0 | 0.01 | 0.35 | 0.01 | 91 | 1010.6 |
| 20260506232021 | 51 | 267 | 0.0 | 1.0 | 0.01 | 0.35 | 0.01 | 92 | 1010.5 |
| 20260506231032 | 51 | 176 | 0.0 | 1.0 | 0.01 | 0.35 | 0.01 | 92 | 1010.4 |
| 20260506230954 | 51 | 176 | 0.0 | 1.0 | 0.01 | 0.35 | 0.01 | 92 | 1010.5 |
| 20260506230033 | 51 | 355 | 0.0 | 0.0 | 0.01 | 0.35 | 0.01 | 92 | 1010.4 |
| 20260506225955 | 51 | 172 | 0.0 | 1.0 | 0.01 | 0.35 | 0.00 | 92 | 1010.5 |
| 20260506225032 | 51 | 172 | 0.0 | 1.0 | 0.01 | 0.35 | 0.00 | 92 | 1010.4 |
| 20260506225026 | 51 | 172 | 0.0 | 1.0 | 0.01 | 0.35 | 0.00 | 92 | 1010.4 |
| 20260506224455 | 51 | 171 | 0.0 | 1.0 | 0.00 | 0.35 | 0.00 | 92 | 1010.4 |
| 20260506223534 | 51 | 169 | 0.0 | 1.0 | 0.00 | 0.35 | 0.00 | 92 | 1010.3 |
| 20260506223031 | 51 | 178 | 0.0 | 1.0 | 0.00 | 0.35 | 0.00 | 92 | 1010.3 |
| 20260506222534 | 51 | 128 | 0.0 | 2.0 | 0.00 | 0.35 | 0.00 | 91 | 1010.2 |
| 20260506222149 | 51 | 173 | 0.0 | 6.0 | 0.00 | 0.35 | 0.00 | 91 | 1010.0 |
| 20260506222050 | 51 | 146 | 0.0 | 2.0 | 0.00 | 0.35 | 0.00 | 91 | 1010.2 |
| 20260506221137 | 51 | 343 | 0.0 | 6.0 | 0.01 | 0.35 | 0.00 | 91 | 1010.0 |
| 20260506221126 | 51 | 126 | 0.0 | 6.0 | 0.01 | 0.35 | 0.34 | 91 | 1009.9 |
| 20260506221035 | 51 | 182 | 0.0 | 6.0 | 0.00 | 0.35 | 0.00 | 91 | 1010.0 |
| 20260506215458 | 51 | 189 | 0.0 | 1.0 | 0.02 | 0.35 | 0.34 | 91 | 1009.9 |
| 20260506215039 | 51 | 348 | 0.0 | 5.0 | 0.02 | 0.35 | 0.34 | 91 | 1009.8 |
| 20260506215009 | 51 | 22 | 0.0 | 2.0 | 0.02 | 0.35 | 0.34 | 91 | 1009.8 |
| 20260506213955 | 52 | 207 | 0.0 | 6.0 | 0.03 | 0.35 | 0.34 | 91 | 1009.8 |
| 20260506213449 | 52 | 312 | 0.0 | 6.0 | 0.04 | 0.35 | 0.34 | 92 | 1009.7 |
| 20260506213001 | 52 | 44 | 0.0 | 1.0 | 0.05 | 0.35 | 0.34 | 93 | 1009.7 |
| 20260506212523 | 52 | 170 | 0.0 | 5.0 | 0.07 | 0.35 | 0.34 | 93 | 1009.7 |
| 20260506212501 | 52 | 200 | 0.0 | 1.0 | 0.06 | 0.35 | 0.34 | 93 | 1009.7 |
| 20260506211515 | 52 | 207 | 0.0 | 6.0 | 0.09 | 0.35 | 0.34 | 93 | 1009.6 |
| 20260506211457 | 52 | 192 | 0.0 | 6.0 | 0.08 | 0.35 | 0.34 | 93 | 1009.6 |
| 20260506210453 | 52 | 215 | 0.0 | 4.0 | 0.09 | 0.34 | 0.34 | 93 | 1009.5 |
| 20260506205946 | 52 | 151 | 0.0 | 4.0 | 0.10 | 0.34 | 0.24 | 93 | 1009.5 |
| 20260506205444 | 52 | 175 | 0.0 | 4.0 | 0.11 | 0.33 | 0.24 | 93 | 1009.5 |
| 20260506204937 | 52 | 175 | 0.0 | 6.0 | 0.11 | 0.32 | 0.24 | 93 | 1009.6 |
| 20260506204440 | 52 | 163 | 0.0 | 6.0 | 0.11 | 0.32 | 0.24 | 94 | 1009.6 |
| 20260506203956 | 52 | 207 | 0.0 | 6.0 | 0.11 | 0.31 | 0.24 | 94 | 1009.6 |
| 20260506203437 | 52 | 157 | 1.0 | 6.0 | 0.10 | 0.31 | 0.24 | 94 | 1009.5 |
| 20260506202933 | 52 | 181 | 0.0 | 4.0 | 0.10 | 0.30 | 0.24 | 94 | 1009.5 |
| 20260506202432 | 52 | 139 | 0.0 | 4.0 | 0.09 | 0.28 | 0.24 | 94 | 1009.5 |
| 20260506202337 | 52 | 190 | 0.0 | 1.0 | 0.09 | 0.28 | 0.24 | 94 | 1009.5 |
| 20260506201429 | 52 | 193 | 0.0 | 1.0 | 0.08 | 0.27 | 0.24 | 94 | 1009.5 |
| 20260506200930 | 53 | 172 | 0.0 | 5.0 | 0.08 | 0.26 | 0.24 | 93 | 1009.4 |
| 20260506200430 | 53 | 184 | 0.0 | 5.0 | 0.06 | 0.24 | 0.24 | 93 | 1009.4 |
| 20260506195933 | 53 | 212 | 0.0 | 4.0 | 0.06 | 0.24 | 0.17 | 94 | 1009.4 |
| 20260506195428 | 53 | 217 | 0.0 | 4.0 | 0.05 | 0.22 | 0.17 | 94 | 1009.4 |
| 20260506195338 | 53 | 186 | 0.0 | 3.0 | 0.05 | 0.21 | 0.17 | 93 | 1009.3 |
| 20260506194426 | 53 | 190 | 0.0 | 3.0 | 0.05 | 0.21 | 0.17 | 93 | 1009.2 |
| 20260506193924 | 53 | 167 | 0.0 | 4.0 | 0.05 | 0.20 | 0.17 | 93 | 1009.2 |
| 20260506193422 | 53 | 181 | 0.0 | 4.0 | 0.05 | 0.20 | 0.17 | 93 | 1009.0 |
| 20260506192918 | 53 | 192 | 0.0 | 5.0 | 0.04 | 0.20 | 0.17 | 93 | 1009.0 |
| 20260506192853 | 53 | 192 | 0.0 | 5.0 | 0.04 | 0.20 | 0.17 | 93 | 1008.9 |
| 20260506191928 | 53 | 188 | 0.0 | 1.0 | 0.03 | 0.19 | 0.17 | 93 | 1008.8 |
| 20260506191421 | 53 | 152 | 0.0 | 1.0 | 0.04 | 0.19 | 0.17 | 93 | 1008.7 |
| 20260506190921 | 54 | 148 | 0.0 | 1.0 | 0.03 | 0.18 | 0.17 | 93 | 1008.6 |
| 20260506190420 | 54 | 146 | 0.0 | 6.0 | 0.03 | 0.18 | 0.17 | 93 | 1008.6 |
| 20260506185921 | 54 | 146 | 0.0 | 6.0 | 0.02 | 0.17 | 0.15 | 93 | 1008.5 |
| 20260506185417 | 54 | 329 | 0.0 | 3.0 | 0.02 | 0.17 | 0.15 | 93 | 1008.5 |
| 20260506184918 | 54 | 350 | 0.0 | 3.0 | 0.02 | 0.17 | 0.15 | 92 | 1008.4 |
| 20260506184420 | 54 | 169 | 0.0 | 3.0 | 0.02 | 0.17 | 0.15 | 92 | 1008.3 |
| 20260506183912 | 54 | 155 | 0.0 | 2.0 | 0.01 | 0.16 | 0.15 | 92 | 1008.2 |
| 20260506183411 | 54 | 171 | 0.0 | 2.0 | 0.01 | 0.16 | 0.15 | 92 | 1008.1 |
| 20260506182908 | 54 | 241 | 0.0 | 4.0 | 0.01 | 0.16 | 0.15 | 92 | 1008.1 |
| 20260506182745 | 54 | 173 | 0.0 | 4.0 | 0.01 | 0.16 | 0.15 | 92 | 1008.0 |
| 20260506181905 | 55 | 175 | 0.0 | 3.0 | 0.01 | 0.16 | 0.15 | 92 | 1008.0 |
| 20260506181820 | 55 | 196 | 0.0 | 1.0 | 0.00 | 0.16 | 0.15 | 92 | 1007.9 |
| 20260506180904 | 55 | 201 | 0.0 | 1.0 | 0.00 | 0.16 | 0.15 | 92 | 1008.0 |
| 20260506180403 | 55 | 201 | 0.0 | 4.0 | 0.00 | 0.16 | 0.15 | 91 | 1007.9 |
| 20260506175912 | 55 | 161 | 0.0 | 4.0 | 0.00 | 0.16 | 0.15 | 92 | 1007.9 |
| 20260506175410 | 55 | 186 | 0.0 | 4.0 | 0.00 | 0.16 | 0.15 | 91 | 1007.9 |
| 20260506174905 | 55 | 188 | 0.0 | 4.0 | 0.00 | 0.17 | 0.15 | 91 | 1007.8 |
| 20260506174415 | 55 | 190 | 0.0 | 1.0 | 0.00 | 0.17 | 0.15 | 92 | 1007.7 |
| 20260506173902 | 55 | 190 | 0.0 | 1.0 | 0.00 | 0.17 | 0.15 | 92 | 1007.7 |
| 20260506173826 | 55 | 189 | 0.0 | 0.0 | 0.00 | 0.18 | 0.15 | 92 | 1007.7 |
| 20260506172902 | 55 | 190 | 0.0 | 1.0 | 0.01 | 0.19 | 0.15 | 92 | 1007.7 |
| 20260506172401 | 55 | 200 | 0.0 | 1.0 | 0.01 | 0.19 | 0.15 | 92 | 1007.7 |
| 20260506172256 | 55 | 201 | 0.0 | 1.0 | 0.01 | 0.19 | 0.15 | 93 | 1007.7 |
| 20260506171413 | 55 | 229 | 0.0 | 1.0 | 0.01 | 0.19 | 0.15 | 93 | 1007.7 |
| 20260506171341 | 55 | 229 | 0.0 | 0.0 | 0.01 | 0.19 | 0.14 | 93 | 1007.7 |
| 20260506171331 | 55 | 229 | 0.0 | 0.0 | 0.01 | 0.19 | 0.15 | 93 | 1007.6 |
| 20260506170909 | 55 | 229 | 0.0 | 0.0 | 0.01 | 0.19 | 0.15 | 93 | 1007.7 |
| 20260506165402 | 55 | 306 | 0.0 | 0.0 | 0.01 | 0.19 | 0.14 | 93 | 1007.6 |
| 20260506164901 | 55 | 306 | 0.0 | 3.0 | 0.01 | 0.19 | 0.14 | 93 | 1007.7 |
| 20260506164406 | 55 | 306 | 0.0 | 3.0 | 0.01 | 0.19 | 0.14 | 93 | 1007.7 |
| 20260506163902 | 55 | 306 | 0.0 | 3.0 | 0.01 | 0.19 | 0.14 | 93 | 1007.6 |
| 20260506163402 | 55 | 313 | 0.0 | 3.0 | 0.01 | 0.19 | 0.14 | 93 | 1007.7 |
| 20260506162902 | 55 | 51 | 0.0 | 1.0 | 0.00 | 0.18 | 0.14 | 93 | 1007.7 |
| 20260506162402 | 55 | 185 | 0.0 | 0.0 | 0.00 | 0.18 | 0.14 | 93 | 1007.7 |
| 20260506162312 | 54 | 254 | 0.0 | 1.0 | 0.01 | 0.18 | 0.14 | 93 | 1007.7 |
| 20260506161403 | 54 | 210 | 0.0 | 1.0 | 0.01 | 0.18 | 0.14 | 93 | 1007.7 |
| 20260506160904 | 54 | 313 | 0.0 | 2.0 | 0.01 | 0.18 | 0.14 | 93 | 1007.7 |
| 20260506160403 | 54 | 198 | 0.0 | 2.0 | 0.02 | 0.18 | 0.14 | 93 | 1007.7 |
| 20260506155903 | 54 | 126 | 0.0 | 3.0 | 0.02 | 0.18 | 0.13 | 93 | 1007.6 |
| 20260506155402 | 54 | 307 | 0.0 | 3.0 | 0.02 | 0.18 | 0.13 | 93 | 1007.6 |
| 20260506154905 | 54 | 325 | 0.0 | 2.0 | 0.02 | 0.18 | 0.13 | 93 | 1007.6 |
| 20260506154402 | 54 | 67 | 0.0 | 1.0 | 0.02 | 0.18 | 0.13 | 93 | 1007.6 |
| 20260506153903 | 55 | 111 | 0.0 | 1.0 | 0.02 | 0.18 | 0.13 | 94 | 1007.5 |
| 20260506153406 | 55 | 13 | 0.0 | 1.0 | 0.04 | 0.18 | 0.13 | 94 | 1007.5 |
| 20260506152902 | 55 | 355 | 0.0 | 1.0 | 0.05 | 0.18 | 0.13 | 94 | 1007.4 |
| 20260506152401 | 55 | 315 | 0.0 | 1.0 | 0.06 | 0.18 | 0.13 | 94 | 1007.3 |
| 20260506151901 | 55 | 17 | 0.0 | 4.0 | 0.09 | 0.17 | 0.13 | 94 | 1007.3 |
| 20260506151411 | 55 | 321 | 0.0 | 4.0 | 0.10 | 0.17 | 0.13 | 93 | 1007.3 |
| 20260506151402 | 55 | 322 | 0.0 | 4.0 | 0.10 | 0.17 | 0.13 | 94 | 1007.3 |
| 20260506150403 | 55 | 323 | 1.0 | 5.0 | 0.10 | 0.17 | 0.13 | 93 | 1007.3 |
| 20260506150140 | 55 | 18 | 0.0 | 4.0 | 0.10 | 0.17 | 0.02 | 93 | 1007.3 |
| 20260506145949 | 55 | 24 | 1.0 | 5.0 | 0.11 | 0.17 | 0.02 | 93 | 1007.3 |
| 20260506144903 | 55 | 308 | 0.0 | 4.0 | 0.11 | 0.17 | 0.02 | 93 | 1007.3 |
| 20260506144402 | 55 | 329 | 0.0 | 4.0 | 0.11 | 0.17 | 0.02 | 93 | 1007.3 |
| 20260506143902 | 55 | 63 | 0.0 | 1.0 | 0.11 | 0.17 | 0.02 | 93 | 1007.4 |
| 20260506143404 | 54 | 90 | 0.0 | 1.0 | 0.09 | 0.15 | 0.02 | 93 | 1007.3 |
| 20260506142901 | 54 | 97 | 0.0 | 1.0 | 0.09 | 0.14 | 0.02 | 92 | 1007.4 |
| 20260506142403 | 54 | 347 | 0.0 | 5.0 | 0.07 | 0.13 | 0.02 | 91 | 1007.5 |
| 20260506141902 | 54 | 348 | 0.0 | 5.0 | 0.04 | 0.09 | 0.02 | 91 | 1007.6 |
| 20260506141402 | 55 | 77 | 0.0 | 5.0 | 0.02 | 0.09 | 0.02 | 90 | 1007.6 |
| 20260506141348 | 55 | 184 | 1.0 | 7.0 | 0.02 | 0.09 | 0.02 | 89 | 1007.5 |
| 20260506140848 | 56 | 181 | 1.0 | 7.0 | 0.02 | 0.09 | 0.02 | 88 | 1007.3 |
| 20260506140354 | 57 | 178 | 0.0 | 7.0 | 0.01 | 0.08 | 0.01 | 87 | 1007.0 |
| 20260506135404 | 58 | 144 | 1.0 | 7.0 | 0.01 | 0.09 | 0.01 | 88 | 1006.9 |
| 20260506134901 | 58 | 60 | 1.0 | 6.0 | 0.00 | 0.09 | 0.01 | 86 | 1006.5 |
| 20260506134400 | 59 | 28 | 0.0 | 6.0 | 0.00 | 0.10 | 0.01 | 83 | 1006.5 |
| 20260506133859 | 59 | 281 | 0.0 | 2.0 | 0.00 | 0.11 | 0.01 | 82 | 1006.4 |
| 20260506133359 | 60 | 329 | 0.0 | 3.0 | 0.00 | 0.13 | 0.01 | 84 | 1006.4 |
| 20260506132906 | 60 | 5 | 0.0 | 3.0 | 0.00 | 0.13 | 0.01 | 82 | 1006.3 |
| 20260506132355 | 60 | 308 | 0.0 | 6.0 | 0.00 | 0.14 | 0.01 | 82 | 1006.3 |
| 20260506131849 | 61 | 327 | 0.0 | 6.0 | 0.00 | 0.15 | 0.01 | 81 | 1006.4 |
| 20260506131345 | 61 | 22 | 0.0 | 6.0 | 0.00 | 0.15 | 0.01 | 80 | 1006.3 |
| 20260506131310 | 62 | 348 | 0.0 | 6.0 | 0.00 | 0.16 | 0.01 | 77 | 1006.2 |
| 20260506130346 | 63 | 355 | 1.0 | 7.0 | 0.00 | 0.16 | 0.01 | 73 | 1006.1 |
| 20260506130318 | 63 | 337 | 1.0 | 7.0 | 0.00 | 0.17 | 0.01 | 70 | 1006.0 |
| 20260506125747 | 64 | 350 | 0.0 | 4.0 | 0.00 | 0.17 | 0.01 | 71 | 1005.9 |
| 20260506124844 | 64 | 351 | 0.0 | 4.0 | 0.00 | 0.19 | 0.01 | 66 | 1005.8 |
| 20260506124343 | 64 | 242 | 0.0 | 1.0 | 0.00 | 0.20 | 0.01 | 64 | 1005.8 |
| 20260506123841 | 64 | 224 | 0.0 | 1.0 | 0.00 | 0.21 | 0.01 | 67 | 1005.8 |
| 20260506123343 | 65 | 0 | 0.0 | 4.0 | 0.00 | 0.24 | 0.01 | 63 | 1005.9 |
| 20260506122838 | 65 | 355 | 1.0 | 5.0 | 0.00 | 0.29 | 0.01 | 66 | 1005.9 |
| 20260506122341 | 65 | 355 | 1.0 | 5.0 | 0.00 | 0.30 | 0.01 | 62 | 1005.9 |
| 20260506121843 | 65 | 312 | 1.0 | 3.0 | 0.00 | 0.30 | 0.01 | 62 | 1005.9 |
| 20260506121800 | 65 | 0 | 0.0 | 3.0 | 0.00 | 0.30 | 0.01 | 64 | 1005.9 |
| 20260506120851 | 64 | 344 | 0.0 | 2.0 | 0.00 | 0.30 | 0.01 | 65 | 1005.9 |
| 20260506120752 | 64 | 328 | 0.0 | 2.0 | 0.00 | 0.30 | 0.01 | 68 | 1005.9 |
| 20260506120733 | 64 | 338 | 0.0 | 4.0 | 0.00 | 0.30 | 0.01 | 67 | 1006.1 |
| 20260506120232 | 64 | 340 | 0.0 | 4.0 | 0.00 | 0.30 | 0.01 | 65 | 1006.0 |
| 20260506120014 | 64 | 349 | 0.0 | 2.0 | 0.00 | 0.30 | 0.01 | 67 | 1006.0 |
| 20260506114720 | 64 | 338 | 0.0 | 4.0 | 0.00 | 0.30 | 0.01 | 65 | 1006.1 |
| 20260506113921 | 64 | 342 | 0.0 | 2.0 | 0.00 | 0.30 | 0.01 | 65 | 1006.0 |
| 20260506113836 | 64 | 0 | 0.0 | 4.0 | 0.00 | 0.30 | 0.01 | 68 | 1006.0 |
| 20260506112836 | 64 | 344 | 0.0 | 1.0 | 0.00 | 0.30 | 0.01 | 67 | 1006.0 |
| 20260506112337 | 64 | 346 | 0.0 | 1.0 | 0.00 | 0.30 | 0.01 | 65 | 1006.1 |
| 20260506111829 | 64 | 355 | 0.0 | 2.0 | 0.00 | 0.30 | 0.01 | 67 | 1006.1 |
| 20260506111326 | 64 | 341 | 0.0 | 4.0 | 0.00 | 0.30 | 0.01 | 69 | 1006.2 |
| 20260506111317 | 64 | 341 | 1.0 | 4.0 | 0.00 | 0.30 | 0.01 | 65 | 1006.3 |
| 20260506110322 | 64 | 62 | 0.0 | 4.0 | 0.00 | 0.30 | 0.01 | 65 | 1006.4 |
| 20260506105822 | 64 | 69 | 0.0 | 1.0 | 0.00 | 0.30 | 0.01 | 65 | 1006.4 |
| 20260506105347 | 64 | 355 | 0.0 | 1.0 | 0.00 | 0.30 | 0.01 | 67 | 1006.5 |
| 20260506105321 | 65 | 355 | 0.0 | 1.0 | 0.00 | 0.30 | 0.01 | 69 | 1006.5 |
| 20260506104323 | 64 | 0 | 0.0 | 1.0 | 0.00 | 0.30 | 0.01 | 67 | 1006.4 |
| 20260506103824 | 63 | 347 | 0.0 | 1.0 | 0.00 | 0.30 | 0.01 | 69 | 1006.5 |
| 20260506103332 | 62 | 350 | 1.0 | 4.0 | 0.00 | 0.30 | 0.01 | 72 | 1006.6 |
| 20260506103323 | 63 | 350 | 0.0 | 4.0 | 0.00 | 0.30 | 0.01 | 73 | 1006.5 |
| 20260506102317 | 63 | 349 | 0.0 | 4.0 | 0.00 | 0.30 | 0.01 | 70 | 1006.6 |
| 20260506101818 | 63 | 85 | 0.0 | 3.0 | 0.00 | 0.30 | 0.01 | 74 | 1006.6 |
| 20260506101716 | 64 | 90 | 0.0 | 1.0 | 0.00 | 0.30 | 0.01 | 71 | 1006.9 |
| 20260506100819 | 64 | 82 | 0.0 | 1.0 | 0.00 | 0.30 | 0.01 | 73 | 1006.9 |
| 20260506100336 | 63 | 5 | 0.0 | 2.0 | 0.00 | 0.30 | 0.01 | 73 | 1006.7 |
| 20260506100323 | 64 | 84 | 0.0 | 1.0 | 0.00 | 0.30 | 0.01 | 75 | 1006.7 |
| 20260506095315 | 63 | 5 | 0.0 | 2.0 | 0.00 | 0.30 | 0.01 | 72 | 1006.7 |
| 20260506095220 | 65 | 0 | 0.0 | 4.0 | 0.00 | 0.30 | 0.01 | 70 | 1006.9 |
| 20260506094953 | 63 | 5 | 1.0 | 5.0 | 0.00 | 0.30 | 0.01 | 73 | 1006.9 |
| 20260506094508 | 64 | 306 | 1.0 | 5.0 | 0.00 | 0.30 | 0.01 | 69 | 1007.0 |
| 20260506093314 | 65 | 0 | 0.0 | 4.0 | 0.00 | 0.30 | 0.01 | 72 | 1006.9 |
| 20260506092814 | 63 | 0 | 0.0 | 4.0 | 0.00 | 0.30 | 0.01 | 75 | 1006.9 |
| 20260506092315 | 63 | 0 | 0.0 | 4.0 | 0.00 | 0.30 | 0.01 | 73 | 1006.9 |
| 20260506091815 | 63 | 167 | 0.0 | 3.0 | 0.00 | 0.30 | 0.01 | 73 | 1006.9 |
| 20260506091316 | 63 | 306 | 0.0 | 3.0 | 0.00 | 0.30 | 0.01 | 72 | 1006.9 |
| 20260506090815 | 62 | 175 | 0.0 | 3.0 | 0.00 | 0.30 | 0.01 | 77 | 1006.7 |
| 20260506090308 | 62 | 313 | 0.0 | 3.0 | 0.00 | 0.30 | 0.01 | 75 | 1006.7 |
| 20260506085814 | 62 | 355 | 0.0 | 4.0 | 0.00 | 0.30 | 0.01 | 76 | 1006.7 |
| 20260506085311 | 63 | 351 | 0.0 | 4.0 | 0.00 | 0.30 | 0.01 | 75 | 1006.9 |
| 20260506084813 | 62 | 49 | 0.0 | 1.0 | 0.00 | 0.30 | 0.01 | 79 | 1006.9 |
| 20260506084305 | 62 | 49 | 0.0 | 1.0 | 0.00 | 0.30 | 0.01 | 79 | 1007.0 |
| 20260506083803 | 62 | 49 | 0.0 | 3.0 | 0.00 | 0.30 | 0.01 | 78 | 1007.0 |
| 20260506083303 | 62 | 49 | 0.0 | 3.0 | 0.00 | 0.30 | 0.01 | 78 | 1006.9 |
| 20260506082802 | 62 | 9 | 0.0 | 2.0 | 0.00 | 0.30 | 0.01 | 78 | 1006.9 |
| 20260506082304 | 62 | 103 | 0.0 | 2.0 | 0.00 | 0.30 | 0.01 | 80 | 1007.0 |
| 20260506082138 | 60 | 339 | 0.0 | 3.0 | 0.00 | 0.30 | 0.01 | 79 | 1007.1 |
| 20260506082133 | 61 | 149 | 0.0 | 3.0 | 0.00 | 0.30 | 0.01 | 80 | 1007.1 |
| 20260506080913 | 60 | 193 | 0.0 | 3.0 | 0.00 | 0.30 | 0.01 | 81 | 1007.1 |
| 20260506080305 | 60 | 193 | 0.0 | 3.0 | 0.00 | 0.30 | 0.01 | 80 | 1007.1 |
| 20260506073259 | 58 | 176 | 0.0 | 1.0 | 0.00 | 0.30 | 0.01 | 87 | 1007.1 |
| 20260506072752 | 58 | 186 | 0.0 | 2.0 | 0.00 | 0.30 | 0.01 | 88 | 1007.0 |
| 20260506072245 | 58 | 186 | 0.0 | 2.0 | 0.00 | 0.30 | 0.01 | 87 | 1007.0 |
| 20260506071841 | 57 | 195 | 0.0 | 0.0 | 0.00 | 0.30 | 0.01 | 87 | 1006.9 |
| 20260506071801 | 57 | 195 | 0.0 | 0.0 | 0.00 | 0.30 | 0.01 | 87 | 1006.9 |
| 20260506070737 | 56 | 195 | 0.0 | 0.0 | 0.00 | 0.30 | 0.01 | 86 | 1006.9 |
| 20260506070235 | 56 | 195 | 0.0 | 0.0 | 0.00 | 0.30 | 0.01 | 86 | 1006.9 |
| 20260506062232 | 55 | 195 | 0.0 | 0.0 | 0.00 | 0.30 | 0.01 | 90 | 1007.1 |
| 20260506062135 | 52 | 197 | 0.0 | 0.0 | 0.00 | 0.30 | 0.01 | 95 | 1007.1 |
| 20260506062125 | 52 | 193 | 0.0 | 0.0 | 0.00 | 0.30 | 0.01 | 96 | 1007.1 |
| 20260506061914 | 54 | 195 | 0.0 | 0.0 | 0.00 | 0.30 | 0.01 | 93 | 1007.2 |
| 20260506061344 | 53 | 197 | 0.0 | 0.0 | 0.00 | 0.30 | 0.01 | 94 | 1007.1 |
| 20260506060740 | 53 | 197 | 0.0 | 0.0 | 0.00 | 0.30 | 0.01 | 95 | 1007.1 |
| 20260506060452 | 52 | 197 | 0.0 | 0.0 | 0.00 | 0.30 | 0.01 | 95 | 1007.1 |
| 20260506060204 | 52 | 197 | 0.0 | 0.0 | 0.00 | 0.30 | 0.01 | 96 | 1007.1 |
| 20260506050207 | 49 | 193 | 0.0 | 0.0 | 0.00 | 0.30 | 0.01 | 97 | 1007.2 |
| 20260506044701 | 49 | 193 | 0.0 | 0.0 | 0.00 | 0.30 | 0.01 | 96 | 1007.2 |
| 20260506044202 | 49 | 193 | 0.0 | 0.0 | 0.00 | 0.30 | 0.01 | 96 | 1007.2 |
| 20260506044131 | 49 | 193 | 0.0 | 0.0 | 0.00 | 0.30 | 0.01 | 97 | 1007.1 |
| 20260506043157 | 49 | 193 | 0.0 | 0.0 | 0.00 | 0.30 | 0.01 | 97 | 1007.2 |
| 20260506042705 | 49 | 193 | 0.0 | 0.0 | 0.01 | 0.30 | 0.01 | 97 | 1007.2 |
| 20260506042156 | 49 | 193 | 0.0 | 0.0 | 0.01 | 0.30 | 0.01 | 96 | 1007.2 |
| 20260506041659 | 49 | 193 | 0.0 | 0.0 | 0.01 | 0.30 | 0.01 | 97 | 1007.2 |
| 20260506041635 | 49 | 193 | 0.0 | 0.0 | 0.01 | 0.30 | 0.01 | 97 | 1007.2 |
| 20260506040657 | 49 | 193 | 0.0 | 0.0 | 0.01 | 0.30 | 0.01 | 97 | 1007.4 |
| 20260506040157 | 49 | 193 | 0.0 | 0.0 | 0.01 | 0.30 | 0.01 | 96 | 1007.3 |
| 20260506035655 | 49 | 193 | 0.0 | 0.0 | 0.01 | 0.30 | 0.00 | 97 | 1007.3 |
| 20260506035555 | 49 | 193 | 0.0 | 0.0 | 0.01 | 0.30 | 0.00 | 96 | 1007.5 |
| 20260506035347 | 49 | 193 | 0.0 | 0.0 | 0.01 | 0.30 | 0.00 | 97 | 1007.4 |
| 20260506034155 | 49 | 193 | 0.0 | 0.0 | 0.01 | 0.30 | 0.00 | 96 | 1007.5 |